Waarnemingen

Advertentie
Mijn weer
Trier-Petrisberg, Duitsland (10609): temperatuur & dauwpunt: 22.04.2017 02:00:00 - 28.04.2017 02:00:00 (CEST)Trier-Petrisberg, Duitsland (10609): temperatuur 5cm & temperatuur -5cm: 22.04.2017 02:00:00 - 28.04.2017 02:00:00 (CEST)Trier-Petrisberg, Duitsland (10609): temperatuur -20cm & temperatuur -100cm: 22.04.2017 02:00:00 - 28.04.2017 02:00:00 (CEST)Trier-Petrisberg, Duitsland (10609): windsnelheid & windstoten: 22.04.2017 02:00:00 - 28.04.2017 02:00:00 (CEST)Trier-Petrisberg, Duitsland (10609): windrichting: 22.04.2017 02:00:00 - 28.04.2017 02:00:00 (CEST)Trier-Petrisberg, Duitsland (10609): luchtdruk: 22.04.2017 02:00:00 - 28.04.2017 02:00:00 (CEST)Trier-Petrisberg, Duitsland (10609): zicht: 22.04.2017 02:00:00 - 28.04.2017 02:00:00 (CEST)Trier-Petrisberg, Duitsland (10609): Zonneschijnduur: 22.04.2017 02:00:00 - 28.04.2017 02:00:00 (CEST)Trier-Petrisberg, Duitsland (10609): neerslag: 22.04.2017 02:00:00 - 28.04.2017 02:00:00 (CEST)
Datum & Tijd tt [°C] td [°C] tt 5cm [°C] tt -5cm [°C] tt -20cm [°C] tt -100cm [°C] ff [km/u] ff [kn] fx [km/u] fx [kn] dd ppp [hPa] vv [km] sd [min] rr [mm]
28.04.2017 02:00:00 2,0 -1,8 -1,1 6,5 11,4 11,1 7 4 10 6 N 1016,6 31 0 0,0
28.04.2017 01:00:00 2,7 -1,8 -0,6 7,3 11,8 11,1 5 3 14 7 NO 1016,7 37 0 0,0
28.04.2017 00:00:00 4,2 -1,8 0,5 8,3 12,1 11,1 9 5 18 10 NNO 1016,6 44 0 0,0
27.04.2017 23:00:00 5,9 -2,0 3,7 9,5 12,4 11,1 13 7 26 14 NNO 1016,5 46 0 0,0
27.04.2017 22:00:00 7,6 -2,9 6,9 10,5 12,6 11,1 13 7 22 12 NNO 1015,8 55 0 0,0
27.04.2017 21:00:00 7,6 -3,7 3,5 11,8 12,7 11,1 6 3 20 11 NO 1015,2 52 21 0,0
27.04.2017 20:00:00 9,4 -2,4 9,2 13,5 12,7 11,1 9 5 19 11 NNO 1014,9 63 14 0,0
27.04.2017 19:00:00 9,6 -2,1 9,6 15,1 12,5 11,1 8 5 27 14 ONO 1014,7 34 30 0,0
27.04.2017 18:00:00 10,7 -3,0 15,3 15,1 12,4 11,1 7 4 23 12 ONO 1014,6 25 13 0,0
27.04.2017 17:00:00 9,5 -2,4 10,8 14,4 12,3 11,1 8 4 24 13 NO 1015,2 55 0 0,0
27.04.2017 16:00:00 9,7 -3,5 11,1 15,1 12,0 11,1 7 4 18 10 O 1015,4 30 0 0,0
27.04.2017 15:00:00 10,3 -3,4 12,7 17,2 11,5 11,1 5 3 21 12 WZW 1015,5 28 28 0,0
27.04.2017 14:00:00 9,8 -0,8 12,8 15,2 11,1 11,2 13 7 22 12 NNO 1015,8 8 8 0,0
27.04.2017 13:00:00 9,1 -2,0 11,1 14,9 10,7 11,2 5 3 15 8 NO 1016,1 34 26 0,0
27.04.2017 12:00:00 7,9 -0,6 11,7 12,6 10,3 11,2 5 3 18 10 NW 1016,8 16 11 0,0
27.04.2017 11:00:00 8,0 0,5 12,8 12,3 10,0 11,2 11 6 21 11 NO 1016,8 6 55 0,0
27.04.2017 10:00:00 6,9 0,8 8,7 9,1 10,0 11,2 12 6 17 9 NO 1016,8 7 60 0,0
27.04.2017 09:00:00 4,1 -0,1 4,9 6,3 10,1 11,2 3 2 5 3 ZZW 1017,1 14 60 0,0
27.04.2017 08:00:00 1,0 -0,9 -0,3 5,1 10,4 11,1 2 1 6 4 O 1017,3 11 50 0,0
27.04.2017 07:00:00 0,3 -1,1 -2,3 5,0 10,7 11,1 3 1 8 5 ONO 1017,1 10 0 0,0
27.04.2017 06:00:00 0,4 -1,2 -2,7 5,5 11,0 11,1 6 3 7 4 NO 1016,5 11 0 0,0
27.04.2017 05:00:00 1,4 -0,7 -1,4 6,1 11,4 11,1 3 2 8 4 O 1016,1 18 0 0,0
27.04.2017 04:00:00 1,3 -0,8 -1,0 6,9 11,7 11,1 4 2 9 5 O 1015,9 20 0 0,0
27.04.2017 03:00:00 3,1 -0,4 0,2 7,6 12,0 11,1 4 2 10 6 N 1015,4 24 0 0,0
27.04.2017 02:00:00 3,7 -0,1 1,2 8,4 12,3 11,1 8 4 10 5 NNW 1015,6 30 0 0,0
27.04.2017 01:00:00 4,9 -0,1 4,1 9,4 12,5 11,1 6 4 13 7 N 1015,4 32 0 0,0
27.04.2017 00:00:00 5,6 0,0 5,0 10,2 12,8 11,1 7 4 10 6 NNW 1015,1 35 0 0,0
26.04.2017 23:00:00 6,2 -0,2 5,8 10,8 13,0 11,1 5 3 8 4 NW 1015,0 51 0 0,0
26.04.2017 22:00:00 6,0 -0,2 5,4 11,5 13,3 11,1 5 3 16 9 O 1014,4 63 0 0,0
26.04.2017 21:00:00 6,6 -0,5 6,5 12,3 13,5 11,1 13 7 18 10 ONO 1013,9 46 0 0,0
26.04.2017 20:00:00 7,5 -2,1 7,7 13,4 13,6 11,1 4 2 24 13 N 1013,2 70 0 0,0
26.04.2017 19:00:00 8,1 -3,4 8,8 14,6 13,7 11,1 10 6 24 13 NNW 1012,8 63 0 0,0
26.04.2017 18:00:00 9,4 -4,8 10,6 16,3 13,6 11,1 7 4 19 10 WNW 1012,3 40 0 0,0
26.04.2017 17:00:00 10,7 -7,0 12,5 17,5 13,4 11,1 5 3 25 13 Z 1012,0 52 0 0,0
26.04.2017 16:00:00 10,6 -6,5 13,7 19,1 12,9 11,1 6 4 24 13 NNW 1011,9 17 18 0,0
26.04.2017 15:00:00 10,1 -9,5 14,2 20,0 12,3 11,1 8 5 24 13 WNW 1012,0 19 28 0,0
26.04.2017 14:00:00 10,4 -5,3 15,4 20,3 11,7 11,1 8 4 20 11 NO 1011,8 7 55 0,0
26.04.2017 13:00:00 9,9 -5,5 15,9 18,4 11,1 11,1 12 7 22 12 W 1012,0 2,4 51 0,0
26.04.2017 12:00:00 8,0 -4,8 10,0 15,6 10,6 11,2 8 5 18 10 WNW 1012,5 14 54 0,0
26.04.2017 11:00:00 7,3 -3,0 12,3 13,0 10,4 11,2 7 4 21 11 NNO 1012,5 18 60 0,0
26.04.2017 10:00:00 6,3 -1,7 8,6 10,1 10,3 11,2 11 6 22 12 NO 1012,3 10 60 0,0
26.04.2017 09:00:00 5,4 -1,1 7,0 7,9 10,3 11,2 8 4 16 9 NNO 1012,6 11 51 0,0
26.04.2017 08:00:00 3,6 -0,8 4,0 7,0 10,5 11,2 6 3 11 6 NNO 1012,5 28 1 0,0
26.04.2017 07:00:00 2,7 -1,3 2,4 6,7 10,7 11,2 6 4 13 7 N 1012,1 27 0 0,0
26.04.2017 06:00:00 2,6 -1,4 2,0 6,8 10,9 11,2 9 5 13 7 N 1011,8 35 0 0,0
26.04.2017 05:00:00 2,8 -1,0 1,7 7,2 11,1 11,1 7 4 11 6 NNO 1011,8 42 0 0,0
26.04.2017 04:00:00 3,2 -1,2 2,2 7,5 11,3 11,1 8 4 11 6 N 1011,7 46 0 0,0
26.04.2017 03:00:00 3,5 -1,4 2,2 7,8 11,6 11,1 8 5 13 7 NNO 1011,6 47 0 0,0
26.04.2017 02:00:00 3,8 -1,3 2,4 8,3 11,8 11,1 6 3 14 8 ONO 1011,5 51 0 0,0
26.04.2017 01:00:00 4,4 -1,9 3,5 8,8 12,0 11,1 9 5 14 7 NNO 1011,3 56 0 0,0
26.04.2017 00:00:00 4,5 -1,9 3,6 9,4 12,3 11,1 8 5 12 6 NNO 1011,0 62 0 0,0
25.04.2017 23:00:00 5,4 -2,7 4,8 9,9 12,5 11,1 8 5 19 10 NNO 1011,0 68 0 0,0
25.04.2017 22:00:00 5,9 -2,9 5,4 10,5 12,7 11,1 13 7 31 17 NO 1010,9 66 0 0,0
25.04.2017 21:00:00 6,7 -1,0 6,4 11,6 12,8 11,1 14 7 31 17 NNO 1010,6 57 0 0,0
25.04.2017 20:00:00 8,3 -3,5 8,1 13,0 12,9 11,1 10 5 28 15 NNW 1009,8 17 0 0,0
25.04.2017 19:00:00 9,1 -4,7 9,6 14,7 12,7 11,1 10 5 27 15 NNW 1009,7 42 24 0,0
25.04.2017 18:00:00 9,8 -4,9 11,8 15,4 12,5 11,1 9 5 24 13 N 1009,8 14 28 0,0
25.04.2017 17:00:00 9,5 -4,4 12,1 15,8 12,2 11,1 9 5 23 12 N 1009,9 11 29 0,0
25.04.2017 16:00:00 9,7 -3,5 13,6 15,6 11,9 11,1 9 5 28 15 N 1010,1 8 35 0,0
25.04.2017 15:00:00 9,3 -2,9 12,5 14,2 11,6 11,1 13 7 23 12 W 1010,6 17 2 0,0
25.04.2017 14:00:00 8,0 -3,4 10,4 12,8 11,4 11,1 14 7 32 17 WNW 1010,9 4,5 1 0,0
25.04.2017 13:00:00 7,6 -1,9 10,5 11,4 11,3 11,1 12 6 26 14 WNW 1010,8 4,8 0 0,0
25.04.2017 12:00:00 6,3 0,6 7,3 9,9 11,3 11,1 9 5 19 10 W 1010,7 19 0 0,0
25.04.2017 11:00:00 5,4 2,6 5,8 9,0 11,4 11,1 8 4 16 9 W 1010,6 34 0 0,2
25.04.2017 10:00:00 4,9 1,8 4,8 8,8 11,6 11,1 8 5 32 17 NW 1010,5 12 0 0,0
25.04.2017 09:00:00 6,2 2,3 6,2 9,0 11,7 11,0 14 8 31 17 NNW 1009,5 24 0 0,0
25.04.2017 08:00:00 7,0 3,5 7,0 9,0 11,9 11,0 10 6 24 13 WNW 1008,6 21 0 0,0
25.04.2017 07:00:00 6,8 3,6 6,6 8,7 12,1 11,0 11 6 20 11 ZZW 1007,8 18 0 0,0
25.04.2017 06:00:00 5,2 1,9 4,5 8,2 12,4 11,0 12 7 18 10 WZW 1008,0 22 0 0,0
25.04.2017 05:00:00 5,4 1,3 3,1 8,7 12,7 11,0 11 6 21 11 ZW 1007,8 24 0 0,0
25.04.2017 04:00:00 5,7 1,2 4,2 9,3 13,1 10,9 12 6 18 10 ZW 1007,9 31 0 0,0
25.04.2017 03:00:00 6,5 0,9 3,7 9,8 13,4 10,9 8 4 13 7 ZW 1008,2 36 0 0,0
25.04.2017 02:00:00 7,5 0,9 4,2 10,6 13,8 10,9 9 5 14 8 ZW 1008,7 38 0 0,0
25.04.2017 01:00:00 8,5 0,6 5,7 11,4 14,2 10,9 6 4 11 6 ZZW 1009,1 42 0 0,0
25.04.2017 00:00:00 9,3 0,7 5,7 12,4 14,5 10,9 5 3 16 8 ZW 1009,5 48 0 0,0
24.04.2017 23:00:00 10,1 0,2 6,3 13,6 14,9 10,8 7 4 19 10 WZW 1010,0 46 0 0,0
24.04.2017 22:00:00 11,8 0,0 9,5 15,0 15,1 10,8 9 5 24 13 WZW 1010,1 51 0 0,0
24.04.2017 21:00:00 13,5 -0,1 12,1 16,7 15,3 10,8 12 6 22 12 W 1010,0 54 2 0,0
24.04.2017 20:00:00 14,6 -0,4 13,5 19,4 15,2 10,8 16 9 29 16 ZW 1010,2 46 49 0,0
24.04.2017 19:00:00 16,8 0,3 19,5 21,6 14,9 10,8 16 9 28 15 ZW 1010,4 15 57 0,0
24.04.2017 18:00:00 16,9 0,8 21,0 23,4 14,4 10,9 16 9 30 16 ZZW 1011,1 10 60 0,0
24.04.2017 17:00:00 17,2 0,0 22,6 24,6 13,7 10,9 12 7 31 17 ZW 1011,9 8 60 0,0
24.04.2017 16:00:00 16,0 -0,8 22,1 24,3 12,9 10,9 14 8 29 16 ZW 1013,2 3,0 60 0,0
24.04.2017 15:00:00 16,1 -0,8 21,9 23,7 12,0 10,9 9 5 24 13 ZW 1014,4 11 60 0,0
24.04.2017 14:00:00 15,1 -0,1 20,3 22,2 11,1 10,9 10 5 18 10 ZW 1015,6 4,1 60 0,0
24.04.2017 13:00:00 13,0 -2,0 18,5 19,6 10,4 10,9 13 7 21 12 ZW 1017,1 5 60 0,0
24.04.2017 12:00:00 12,9 -0,1 17,5 16,1 9,8 10,9 10 5 19 10 ZZO 1017,9 6 60 0,0
24.04.2017 11:00:00 9,1 -0,5 12,0 12,1 9,5 10,9 7 4 11 6 W 1019,1 9 60 0,0
24.04.2017 10:00:00 6,7 -0,3 8,9 8,5 9,5 10,9 5 3 8 4 ZZW 1019,7 15 60 0,0
24.04.2017 09:00:00 3,5 -1,0 3,7 5,2 9,6 10,9 2 1 9 5 WZW 1020,7 25 60 0,0
24.04.2017 08:00:00 0,1 -1,5 -1,4 4,2 9,9 10,9 5 3 9 5 NNO 1021,3 27 60 0,0
24.04.2017 07:00:00 -0,8 -2,0 -3,6 4,2 10,2 10,9 6 3 8 5 NNO 1021,7 26 12 0,0
24.04.2017 06:00:00 -0,6 -2,0 -3,3 4,6 10,6 10,8 6 3 10 6 NNO 1021,8 31 0 0,0
24.04.2017 05:00:00 0,2 -1,9 -2,9 5,2 10,9 10,8 6 4 12 6 NNO 1022,4 50 0 0,0
24.04.2017 04:00:00 0,7 -1,9 -2,5 5,8 11,3 10,8 5 3 8 4 NO 1022,9 51 0 0,0
24.04.2017 03:00:00 2,3 -1,7 -0,8 6,5 11,7 10,8 8 4 10 5 NO 1023,3 68 0 0,0
24.04.2017 02:00:00 3,7 -1,7 -0,1 7,2 12,0 10,8 8 4 8 5 NO 1024,0 69 0 0,0
24.04.2017 01:00:00 3,7 -1,8 0,0 8,0 12,4 10,8 7 4 9 5 NO 1024,5 65 0 0,0
24.04.2017 00:00:00 4,3 -1,8 0,0 9,0 12,8 10,8 7 4 11 6 ONO 1024,7 70 0 0,0
23.04.2017 23:00:00 4,7 -2,0 1,2 10,2 13,2 10,8 8 5 17 9 NO 1025,1 70 0 0,0
23.04.2017 22:00:00 6,3 -2,7 3,2 11,6 13,5 10,8 13 7 21 11 NO 1025,0 70 0 0,0
23.04.2017 21:00:00 7,6 -2,5 5,8 13,6 13,6 10,8 15 8 27 15 NO 1024,7 62 35 0,0
23.04.2017 20:00:00 9,6 -2,6 9,9 16,3 13,6 10,8 19 10 27 14 ONO 1024,3 58 59 0,0
23.04.2017 19:00:00 11,1 -1,9 12,7 17,8 13,3 10,8 16 9 25 14 NO 1024,0 60 44 0,0
23.04.2017 18:00:00 12,0 -2,4 16,2 19,0 12,8 10,8 10 5 27 15 NO 1023,9 50 40 0,0
23.04.2017 17:00:00 10,7 -2,9 13,7 20,4 12,2 10,8 9 5 25 14 ONO 1024,5 54 42 0,0
23.04.2017 16:00:00 12,6 -1,6 19,5 18,7 11,7 10,8 7 4 16 9 WZW 1024,7 43 24 0,0
23.04.2017 15:00:00 9,8 -2,5 14,1 18,6 11,2 10,9 9 5 17 9 NNO 1025,5 45 24 0,0
23.04.2017 14:00:00 11,1 -0,8 16,8 16,3 10,7 10,9 6 3 18 10 Z 1025,8 41 20 0,0
23.04.2017 13:00:00 8,3 -1,9 11,4 14,3 10,4 10,9 13 7 21 12 NNO 1026,6 50 16 0,0
23.04.2017 12:00:00 7,0 -1,7 8,8 12,2 10,1 10,9 5 3 19 11 N 1027,1 43 10 0,0
23.04.2017 11:00:00 6,3 -1,0 8,0 11,2 9,9 10,9 8 5 27 15 NNW 1027,2 40 29 0,0
23.04.2017 10:00:00 6,4 -0,8 7,4 9,9 9,7 10,9 11 6 18 10 N 1027,0 40 51 0,0
23.04.2017 09:00:00 6,3 0,2 7,4 7,1 9,8 10,9 4 2 10 5 N 1027,0 34 54 0,0
23.04.2017 08:00:00 3,4 -0,3 2,7 5,6 10,0 10,9 5 3 9 5 NNO 1027,2 35 19 0,0
23.04.2017 07:00:00 2,3 -0,4 -0,3 5,7 10,2 10,9 2 1 8 4 NO 1026,8 37 2 0,0
23.04.2017 06:00:00 2,8 -0,6 1,2 6,4 10,4 10,9 4 2 13 7 N 1026,3 16 0 0,0
23.04.2017 05:00:00 4,0 -0,8 3,4 6,6 10,7 10,8 7 4 13 7 N 1025,9 63 0 0,0
23.04.2017 04:00:00 3,2 -1,2 1,9 6,4 11,0 10,8 4 2 13 7 WNW 1026,0 70 0 0,0
23.04.2017 03:00:00 4,1 -1,4 1,2 6,8 11,3 10,8 7 4 19 10 N 1026,0 70 0 0,0
23.04.2017 02:00:00 5,0 -1,4 2,7 7,6 11,5 10,8 6 3 15 8 N 1026,4 70 0 0,0
23.04.2017 01:00:00 5,8 -1,6 3,3 8,5 11,8 10,8 7 4 29 15 N 1026,4 70 0 0,0
23.04.2017 00:00:00 6,8 0,0 5,8 9,3 12,0 10,8 8 4 19 10 NNW 1026,2 70 0 0,0
22.04.2017 23:00:00 7,4 0,5 6,0 10,2 12,2 10,8 6 3 26 14 NNW 1025,9 70 0 0,0
22.04.2017 22:00:00 8,2 0,7 7,7 10,9 12,4 10,8 9 5 25 14 N 1025,4 70 0 0,0
22.04.2017 21:00:00 8,8 0,2 8,3 11,9 12,5 10,8 12 6 27 15 N 1024,8 45 0 0,0
22.04.2017 20:00:00 9,9 -0,1 9,9 13,3 12,5 10,8 12 6 25 14 N 1024,3 49 11 0,0
22.04.2017 19:00:00 10,3 -0,8 10,7 14,6 12,3 10,8 18 10 34 18 NNW 1024,3 49 23 0,0
22.04.2017 18:00:00 12,0 0,5 15,9 15,9 12,0 10,8 14 8 40 22 NNO 1024,0 32 38 0,0
22.04.2017 17:00:00 11,8 1,3 15,9 14,3 11,8 10,8 11 6 29 16 NNW 1024,2 40 22 0,0
22.04.2017 16:00:00 10,1 3,1 11,6 13,7 11,7 10,8 5 3 15 8 N 1025,0 46 1 0,0
22.04.2017 15:00:00 9,2 2,8 13,2 13,6 11,6 10,8 6 4 13 7 WNW 1025,6 70 2 0,0
22.04.2017 14:00:00 7,1 3,5 7,5 10,9 11,6 10,8 8 4 27 15 NO 1026,4 24 0 0,0
22.04.2017 13:00:00 7,1 3,6 7,6 11,1 11,6 10,7 18 10 33 18 NNO 1026,6 32 0 0,0
22.04.2017 12:00:00 8,0 5,2 8,5 11,8 11,6 10,7 19 11 35 19 NNO 1026,0 20 0 0,0
22.04.2017 11:00:00 10,9 5,5 11,4 12,3 11,5 10,7 11 6 29 15 WNW 1025,1 14 0 0,0
22.04.2017 10:00:00 10,7 5,8 11,8 11,8 11,5 10,7 11 6 22 12 NW 1025,2 14 0 0,0
22.04.2017 09:00:00 10,1 5,6 10,9 11,0 11,5 10,7 4 2 23 12 W 1025,5 13 0 0,0
22.04.2017 08:00:00 9,4 5,9 9,4 10,3 11,6 10,7 9 5 18 10 W 1025,3 13 0 0,0
22.04.2017 07:00:00 9,3 5,5 8,8 10,2 11,8 10,7 8 4 18 10 W 1025,5 15 0 0,0
22.04.2017 06:00:00 9,5 5,5 9,1 10,4 11,9 10,7 8 5 25 13 W 1025,6 34 0 0,0
22.04.2017 05:00:00 9,8 5,0 9,3 10,7 12,0 10,6 10 5 18 10 W 1026,0 28 0 0,0
22.04.2017 04:00:00 10,1 5,1 9,6 10,9 12,2 10,6 10 5 17 9 W 1026,2 34 0 0,0
22.04.2017 03:00:00 10,4 4,9 9,8 11,2 12,3 10,6 8 4 11 6 W 1026,7 38 0 0,0
22.04.2017 02:00:00 10,4 5,3 9,7 11,5 12,5 10,6 6 4 19 10 WNW 1027,1 34 0 0,0

tt = temperatuur
td = dauwpunt
tt 5cm = temperatuur 5cm
tt -5cm = temperatuur -5cm
tt -20cm = temperatuur -20cm
tt -100cm = temperatuur -100cm
ff = windsnelheid
fx = windstoten
dd = windrichting
ppp = luchtdruk
vv = zicht
sd = Zonneschijnduur
rr = neerslag

Weerstations in de omgeving